• In Moldova, Republic
  • List of Countries
  • For 7 days
  • Water Temperature
  • Satellite Maps
  • Weather Map
  • Weather Widgets
  • user-avatar
    Login

    Hourly Weather Konstantyna

    Today, 18 January, Friday

    Time Temperature Precipitation Wind Pressure Humidity
    00:00 +7°C° 0 mm 1 mps 708 mmHg 77%
    01:00 +6°C° 0 mm 1 mps 708 mmHg 77%
    02:00 +6°C° 0 mm 1 mps 708 mmHg 76%
    03:00 +5°C° 0 mm 2 mps 708 mmHg 76%
    04:00 +5°C° 0 mm 2 mps 708 mmHg 76%
    05:00 +4°C° 0 mm 2 mps 708 mmHg 76%
    06:00 +4°C° 0 mm 2 mps 708 mmHg 77%
    07:00 +6°C° 0 mm 2 mps 708 mmHg 72%
    08:00 +7°C° 0 mm 2 mps 708 mmHg 67%
    09:00 +9°C° 0 mm 2 mps 709 mmHg 62%
    10:00 +10°C° 0 mm 2 mps 709 mmHg 58%
    11:00 +12°C° 0 mm 2 mps 709 mmHg 54%
    12:00 +13°C° 0 mm 2 mps 709 mmHg 50%
    13:00 +13°C° 0 mm 2 mps 709 mmHg 52%
    14:00 +13°C° 0 mm 2 mps 708 mmHg 54%
    15:00 +13°C° 0 mm 2 mps 708 mmHg 55%
    16:00 +10°C° 0.1 mm 2 mps 708 mmHg 65%
    17:00 +9°C° 0.1 mm 2 mps 708 mmHg 75%
    18:00 +8°C° 0.1 mm 1 mps 708 mmHg 85%
    19:00 +8°C° 0 mm 1 mps 708 mmHg 88%
    20:00 +7°C° 0 mm 1 mps 708 mmHg 91%
    21:00 +6°C° 0 mm 0 mps 709 mmHg 93%
    22:00 +6°C° 0 mm 0 mps 709 mmHg 94%
    23:00 +5°C° 0 mm 0 mps 709 mmHg 94%

    Tomorrow, 19 January, Saturday

    Time Temperature Precipitation Wind Pressure Humidity
    00:00 +5°C° 0 mm 0 mps 708 mmHg 95%
    01:00 +5°C° 0 mm 0 mps 708 mmHg 94%
    02:00 +5°C° 0 mm 0 mps 708 mmHg 93%
    03:00 +4°C° 0 mm 0 mps 708 mmHg 93%
    04:00 +5°C° 0 mm 1 mps 708 mmHg 92%
    05:00 +5°C° 0 mm 1 mps 707 mmHg 91%
    06:00 +5°C° 0 mm 1 mps 707 mmHg 90%
    07:00 +6°C° 0 mm 1 mps 708 mmHg 85%
    08:00 +8°C° 0 mm 1 mps 708 mmHg 79%
    09:00 +9°C° 0 mm 1 mps 709 mmHg 74%
    10:00 +10°C° 0.1 mm 1 mps 708 mmHg 68%
    11:00 +10°C° 0.1 mm 2 mps 708 mmHg 63%
    12:00 +12°C° 0.1 mm 2 mps 708 mmHg 58%
    13:00 +12°C° 0.3 mm 2 mps 708 mmHg 60%
    14:00 +10°C° 0.3 mm 2 mps 708 mmHg 62%
    15:00 +10°C° 0.3 mm 2 mps 707 mmHg 64%
    16:00 +9°C° 0.1 mm 2 mps 707 mmHg 72%
    17:00 +8°C° 0.1 mm 1 mps 708 mmHg 80%
    18:00 +7°C° 0.1 mm 1 mps 708 mmHg 89%
    19:00 +7°C° 0 mm 1 mps 708 mmHg 90%
    20:00 +5°C° 0 mm 0 mps 708 mmHg 92%
    21:00 +5°C° 0 mm 0 mps 708 mmHg 93%
    22:00 +5°C° 0 mm 0 mps 708 mmHg 93%
    23:00 +5°C° 0 mm 1 mps 708 mmHg 92%

    Day after tomorrow, 20 January, Sunday

    Time Temperature Precipitation Wind Pressure Humidity
    00:00 +5°C° 0 mm 1 mps 708 mmHg 91%
    01:00 +5°C° 0 mm 1 mps 707 mmHg 90%
    02:00 +5°C° 0 mm 1 mps 707 mmHg 89%
    03:00 +5°C° 0 mm 1 mps 707 mmHg 88%
    04:00 +5°C° 0 mm 1 mps 707 mmHg 87%
    05:00 +4°C° 0 mm 2 mps 707 mmHg 85%
    06:00 +4°C° 0 mm 2 mps 707 mmHg 84%
    07:00 +5°C° 0 mm 2 mps 707 mmHg 78%
    08:00 +7°C° 0 mm 2 mps 707 mmHg 71%
    09:00 +8°C° 0 mm 2 mps 707 mmHg 65%
    10:00 +10°C° 0 mm 3 mps 707 mmHg 58%
    11:00 +11°C° 0 mm 4 mps 706 mmHg 52%
    12:00 +12°C° 0 mm 5 mps 706 mmHg 46%
    13:00 +12°C° 0.2 mm 4 mps 705 mmHg 52%
    14:00 +11°C° 0.2 mm 4 mps 705 mmHg 59%
    15:00 +11°C° 0.2 mm 3 mps 704 mmHg 66%
    16:00 +10°C° 0.1 mm 3 mps 704 mmHg 69%
    17:00 +9°C° 0.1 mm 3 mps 704 mmHg 73%
    18:00 +9°C° 0.1 mm 3 mps 705 mmHg 76%
    19:00 +8°C° 0.1 mm 2 mps 704 mmHg 79%
    20:00 +7°C° 0.1 mm 2 mps 704 mmHg 81%
    21:00 +6°C° 0.1 mm 2 mps 704 mmHg 84%
    22:00 +7°C° 0 mm 2 mps 704 mmHg 84%
    23:00 +7°C° 0 mm 2 mps 704 mmHg 84%

    21 January, Monday

    Time Temperature Precipitation Wind Pressure Humidity
    00:00 +7°C° 0 mm 2 mps 704 mmHg 84%
    01:00 +7°C° 0 mm 2 mps 704 mmHg 86%
    02:00 +6°C° 0 mm 2 mps 704 mmHg 87%
    03:00 +5°C° 0 mm 3 mps 703 mmHg 89%
    04:00 +5°C° 0 mm 3 mps 703 mmHg 89%
    05:00 +4°C° 0 mm 3 mps 703 mmHg 89%
    06:00 +4°C° 0 mm 3 mps 703 mmHg 89%
    07:00 +5°C° 0 mm 3 mps 704 mmHg 87%
    08:00 +6°C° 0 mm 4 mps 704 mmHg 84%
    09:00 +6°C° 0 mm 4 mps 705 mmHg 81%
    10:00 +6°C° 0.3 mm 5 mps 705 mmHg 83%
    11:00 +7°C° 0.3 mm 6 mps 705 mmHg 84%
    12:00 +6°C° 0.3 mm 7 mps 705 mmHg 86%
    13:00 +6°C° 0.2 mm 7 mps 706 mmHg 85%
    14:00 +5°C° 0.2 mm 6 mps 706 mmHg 85%
    15:00 +5°C° 0.2 mm 6 mps 706 mmHg 84%
    16:00 +6°C° 0.2 mm 5 mps 707 mmHg 87%
    17:00 +5°C° 0.2 mm 4 mps 707 mmHg 90%
    18:00 +5°C° 0.2 mm 3 mps 708 mmHg 93%
    19:00 +4°C° 0.1 mm 3 mps 708 mmHg 93%
    20:00 +5°C° 0.1 mm 2 mps 709 mmHg 93%
    21:00 +5°C° 0.1 mm 2 mps 709 mmHg 93%
    22:00 +4°C° 0 mm 2 mps 709 mmHg 93%
    23:00 +4°C° 0 mm 2 mps 709 mmHg 94%

    22 January, Tuesday

    Time Temperature Precipitation Wind Pressure Humidity
    00:00 +4°C° 0 mm 1 mps 709 mmHg 94%
    01:00 +4°C° 0 mm 1 mps 709 mmHg 94%
    02:00 +4°C° 0 mm 1 mps 709 mmHg 94%
    03:00 +3°C° 0 mm 1 mps 709 mmHg 94%
    04:00 +3°C° 0 mm 1 mps 709 mmHg 94%
    05:00 +4°C° 0 mm 1 mps 709 mmHg 94%
    06:00 +4°C° 0 mm 1 mps 709 mmHg 94%
    07:00 +4°C° 0 mm 2 mps 710 mmHg 87%
    08:00 +4°C° 0 mm 3 mps 710 mmHg 80%
    09:00 +5°C° 0 mm 3 mps 711 mmHg 73%
    10:00 +6°C° 0 mm 4 mps 711 mmHg 70%
    11:00 +6°C° 0 mm 4 mps 711 mmHg 68%
    12:00 +7°C° 0 mm 5 mps 711 mmHg 65%
    13:00 +7°C° 0 mm 4 mps 710 mmHg 64%
    14:00 +7°C° 0 mm 4 mps 710 mmHg 63%
    15:00 +8°C° 0 mm 3 mps 709 mmHg 62%
    16:00 +5°C° 0 mm 3 mps 709 mmHg 68%
    17:00 +5°C° 0 mm 2 mps 709 mmHg 74%
    18:00 +5°C° 0 mm 1 mps 708 mmHg 80%
    19:00 +4°C° 0 mm 1 mps 708 mmHg 80%
    20:00 +3°C° 0 mm 2 mps 708 mmHg 80%
    21:00 +3°C° 0 mm 2 mps 708 mmHg 80%
    22:00 +2°C° 0 mm 3 mps 707 mmHg 80%
    23:00 +2°C° 0 mm 3 mps 707 mmHg 80%

    23 January, Wednesday

    Time Temperature Precipitation Wind Pressure Humidity
    00:00 +1°C° 0 mm 3 mps 706 mmHg 80%
    01:00 +2°C° 0 mm 3 mps 705 mmHg 78%
    02:00 +2°C° 0 mm 3 mps 705 mmHg 76%
    03:00 +2°C° 0 mm 3 mps 704 mmHg 73%
    04:00 +1°C° 0 mm 4 mps 704 mmHg 74%
    05:00 +1°C° 0 mm 4 mps 703 mmHg 74%
    06:00 +1°C° 0 mm 5 mps 703 mmHg 75%
    07:00 +2°C° 0 mm 5 mps 703 mmHg 73%
    08:00 +3°C° 0 mm 5 mps 703 mmHg 71%
    09:00 +4°C° 0 mm 6 mps 703 mmHg 69%
    10:00 +5°C° 0.1 mm 6 mps 703 mmHg 69%
    11:00 +7°C° 0.1 mm 6 mps 703 mmHg 69%
    12:00 +7°C° 0.1 mm 6 mps 702 mmHg 70%
    13:00 +8°C° 0 mm 6 mps 702 mmHg 68%
    14:00 +8°C° 0 mm 6 mps 701 mmHg 66%
    15:00 +8°C° 0 mm 7 mps 701 mmHg 65%
    16:00 +7°C° 0 mm 6 mps 700 mmHg 67%
    17:00 +5°C° 0 mm 6 mps 700 mmHg 70%
    18:00 +4°C° 0 mm 6 mps 700 mmHg 73%
    19:00 +3°C° 0 mm 6 mps 699 mmHg 74%
    20:00 +3°C° 0 mm 6 mps 699 mmHg 76%
    21:00 +3°C° 0 mm 6 mps 698 mmHg 77%
    22:00 +3°C° 0 mm 6 mps 698 mmHg 77%
    23:00 +3°C° 0 mm 7 mps 697 mmHg 77%
    Show more